GFSCGP_sfc_30mbdewp_120.txt.gz
Dewpoint
21 16 8 10 15 15 13 12 11 11 12 13 12 11 11 14 16 17 18 18 18 18 18 14 17 18 18 22 37 36 34 52 61 61 59 58 58 59 59 60 61 63 65 65
21 16 14 19 19 18 17 15 14 12 13 13 12 13 14 16 23 31 32 32 31 30 26 20 18 20 38 41 43 43 42 45 60 61 59 57 58 58 58 59 60 62 64 65
20 17 21 21 20 20 19 15 14 12 15 17 15 12 14 21 27 28 31 33 35 35 35 35 37 39 42 42 44 45 51 47 58 60 61 59 59 58 59 59 59 62 64 64
23 23 21 22 21 22 18 14 12 13 16 15 18 16 16 22 23 25 28 32 36 37 38 37 38 39 40 41 43 47 53 59 61 63 61 60 59 59 61 59 60 62 63 63
19 22 23 23 22 21 17 19 17 18 20 20 16 17 16 23 23 25 27 30 33 35 37 37 37 37 38 39 40 45 49 51 56 64 63 62 61 60 61 61 61 62 63 63
25 25 26 25 25 25 23 23 23 22 21 17 18 23 19 24 27 26 30 28 32 32 34 36 37 37 37 38 39 42 46 47 50 54 60 63 62 62 62 62 62 63 63 63
20 22 26 27 23 25 24 24 17 15 18 8 21 23 25 29 30 30 29 30 30 31 31 33 34 35 37 37 38 40 42 43 47 50 52 55 58 60 63 62 62 63 63 63
18 14 23 26 25 24 23 24 18 16 14 17 21 21 25 27 30 30 30 30 31 30 31 31 32 34 35 36 37 38 39 40 43 46 48 50 52 53 55 57 59 62 63 63
21 23 23 24 24 27 23 22 25 24 24 23 25 27 30 24 25 27 28 27 28 29 29 30 32 33 34 35 35 37 38 38 39 42 44 46 47 49 51 53 55 56 63 63
23 25 22 25 27 26 27 27 23 28 20 17 23 23 21 24 25 27 26 26 27 29 28 29 30 31 32 33 34 35 36 36 37 39 41 42 44 45 47 50 53 55 55 61
23 27 21 23 22 21 24 26 28 30 24 20 18 21 28 26 27 25 25 27 27 28 27 28 29 30 29 31 32 33 33 34 35 37 38 39 40 42 43 44 46 48 52 53
28 28 22 21 23 23 22 26 32 27 23 27 26 21 30 28 28 27 26 27 28 28 28 28 28 29 27 28 29 30 32 33 34 35 36 36 37 38 39 40 41 44 47 49
31 26 21 17 26 23 23 24 26 30 32 26 24 21 28 27 26 27 25 26 27 27 27 27 27 27 27 27 28 30 31 33 34 34 34 35 35 35 36 37 38 40 41 43
32 27 27 20 23 26 24 24 26 32 28 24 23 22 24 25 24 25 25 26 26 26 26 26 27 27 27 28 28 28 30 31 32 33 34 33 33 34 35 35 36 37 38 39
29 27 29 28 29 30 25 26 27 25 28 25 23 21 23 24 24 24 26 26 25 24 24 25 26 26 28 27 27 27 29 29 31 31 32 33 32 33 33 34 34 34 34 35
32 28 30 28 32 31 25 26 25 26 25 24 22 21 26 26 26 24 24 23 21 21 22 23 24 24 26 27 26 25 27 28 29 29 30 31 32 31 31 32 32 32 32 33
30 29 27 22 30 26 23 25 26 25 24 27 23 24 25 24 22 22 22 21 21 21 22 23 24 25 25 27 25 25 26 27 27 27 28 29 29 30 31 31 31 31 31 31
29 27 27 22 28 20 26 28 25 23 24 25 24 24 24 23 23 23 23 21 21 21 22 23 24 24 25 26 26 25 25 26 26 27 27 28 28 28 29 30 31 31 31 31
27 28 24 23 25 24 26 27 26 25 23 25 26 26 25 25 25 23 22 22 21 21 21 21 21 23 24 25 25 25 25 25 25 26 26 27 28 28 28 29 30 31 30 31
29 30 26 23 22 18 23 27 31 30 22 25 25 26 27 28 24 21 22 22 21 20 19 19 19 19 20 22 23 24 25 25 24 25 26 26 27 27 27 28 29 30 30 30
26 24 22 22 21 22 25 30 32 22 22 25 25 24 24 23 23 22 22 21 20 18 18 18 18 18 18 19 21 22 23 24 26 24 25 26 26 27 28 28 29 29 29 29
18 20 21 22 21 19 28 30 26 27 27 26 25 24 23 23 22 22 21 20 19 17 17 17 17 17 17 18 19 20 21 21 22 22 21 22 23 26 27 27 28 28 28 27
22 24 22 23 22 28 30 29 32 28 27 26 25 24 24 23 22 21 21 20 17 15 15 16 16 16 16 16 16 18 19 19 20 20 20 19 19 20 21 23 24 24 25 25
27 27 25 25 27 28 29 30 32 30 27 26 25 24 24 23 22 21 19 17 14 12 12 14 14 14 14 15 16 16 17 17 16 16 16 17 18 17 18 18 19 20 21 21
27 28 25 25 27 28 29 29 29 28 26 24 23 22 21 20 18 17 16 14 11 10 9 8 8 9 10 13 15 16 16 16 14 14 15 16 16 15 14 16 18 17 19 19
27 26 26 26 28 30 27 29 29 25 23 22 21 20 19 18 17 17 16 15 10 8 7 6 5 5 5 8 13 15 16 16 15 13 14 16 16 16 14 13 13 18 16 16

GFSCGP_sfc_30mbdewp_126.txt.gz
Dewpoint
18 17 11 10 10 12 10 5 6 9 11 9 9 8 7 9 23 26 25 25 26 27 28 29 31 34 36 38 40 41 43 45 39 31 50 60 62 61 63 63 65 66 66 67
17 15 14 13 12 10 10 11 11 12 12 9 8 7 9 13 25 25 25 26 26 27 27 28 30 32 34 36 38 39 40 41 43 45 43 52 60 61 61 62 62 65 66 66
14 13 17 15 13 7 10 12 12 13 12 12 11 9 7 24 26 27 27 27 27 27 27 28 29 30 32 33 36 37 39 39 41 44 46 45 49 60 60 61 60 65 66 66
13 14 14 13 14 11 11 15 14 14 16 13 16 15 16 19 26 27 27 28 27 27 28 28 29 28 29 31 34 37 37 38 40 43 45 49 51 53 59 60 59 64 66 66
12 16 16 13 10 14 17 18 19 19 18 18 19 15 23 25 27 26 26 27 27 27 28 28 28 29 29 30 33 36 37 38 41 43 47 48 49 52 56 59 58 61 66 65
19 18 18 17 17 20 21 20 20 20 17 17 17 22 28 27 25 26 27 27 26 27 28 28 28 29 30 31 33 34 36 38 41 44 46 49 51 53 53 58 57 59 64 65
16 16 15 17 19 20 19 21 15 12 12 13 16 15 26 25 26 26 26 28 27 27 28 28 28 29 31 30 31 33 35 37 40 42 47 51 53 56 58 58 57 58 62 64
9 9 16 20 21 16 19 18 15 10 13 17 17 18 24 25 27 27 26 27 26 27 28 29 30 30 30 30 30 32 33 36 39 42 46 48 50 53 55 54 57 61 63 63
21 12 18 21 21 19 20 18 22 22 19 20 20 29 28 27 26 27 26 26 27 27 27 28 30 30 29 30 30 31 33 36 39 41 43 44 45 47 49 50 52 55 54 56
23 23 20 19 20 19 19 20 19 23 21 15 14 27 27 25 26 26 26 26 27 27 27 28 29 29 29 30 31 32 33 35 37 40 40 41 41 43 45 47 47 48 48 51
22 28 19 18 19 15 22 22 26 26 25 20 20 24 28 27 27 25 26 27 28 28 27 28 29 29 31 30 31 31 33 34 36 37 37 37 38 39 40 41 43 44 44 44
22 25 23 21 20 22 20 19 21 20 18 25 26 25 28 28 27 25 25 27 29 29 28 29 29 28 30 30 31 31 32 34 34 36 35 36 36 37 37 37 38 39 40 40
28 25 21 21 21 23 20 22 22 23 24 22 21 23 27 26 26 25 26 27 29 28 28 28 28 27 29 29 30 30 31 33 35 36 35 34 34 35 34 35 36 36 37 37
31 27 26 25 30 29 25 24 24 24 26 26 27 24 24 24 25 25 25 26 27 27 27 27 27 27 28 30 30 30 30 31 32 34 34 34 34 34 34 34 34 34 35 35
25 29 27 27 29 28 26 27 26 23 25 26 26 24 23 24 25 24 24 23 22 23 23 24 26 27 27 28 29 30 30 29 30 31 33 33 33 35 33 33 33 33 33 33
24 28 30 27 27 28 26 28 28 26 25 25 24 24 25 25 25 24 23 22 21 22 23 23 23 25 27 27 27 27 27 28 28 29 30 31 33 33 33 32 32 32 31 31
27 28 28 21 26 25 26 30 27 26 25 25 25 26 25 24 24 24 23 22 22 21 22 25 25 26 26 27 26 27 27 27 27 27 28 29 29 30 30 31 31 31 30 30
26 29 29 22 28 20 27 29 26 23 23 23 24 24 24 24 25 24 23 22 22 21 21 23 25 26 27 26 27 27 27 27 27 26 27 28 28 28 28 29 30 29 29 29
18 28 26 21 18 25 26 25 24 22 24 25 24 24 24 25 25 24 23 23 22 20 20 20 20 22 25 26 25 26 28 27 26 28 27 28 28 28 29 29 29 29 29 30
17 29 26 22 18 12 27 26 28 27 25 25 26 24 24 24 25 24 23 23 22 19 19 18 18 17 18 21 22 23 25 27 26 26 28 29 29 29 28 28 29 30 29 29
27 29 24 23 18 22 26 28 30 23 25 26 26 27 26 25 26 24 23 23 21 17 17 18 17 17 16 16 18 18 18 20 22 24 23 24 27 26 28 27 26 26 27 26
25 22 23 23 20 20 28 29 28 29 27 27 27 28 26 25 24 23 23 23 18 16 16 15 15 15 15 14 15 16 16 15 17 19 20 20 20 22 23 23 22 21 22 22
25 24 28 26 25 28 32 34 32 29 31 29 28 25 24 24 24 23 23 22 15 13 13 12 11 11 12 13 14 14 16 15 16 16 17 19 18 18 19 20 20 18 17 17
26 26 28 25 26 28 31 34 35 34 33 32 30 25 24 23 23 23 22 16 12 10 8 8 7 6 7 9 10 12 14 15 15 15 16 17 18 17 17 19 19 20 18 17
26 25 26 28 27 27 31 32 32 32 34 31 28 24 23 22 21 17 14 12 10 8 7 7 7 7 7 8 8 10 12 14 14 16 15 17 18 18 17 19 20 20 19 17
27 27 25 28 28 27 29 31 33 31 30 28 24 21 20 18 18 16 12 10 8 8 7 7 9 9 8 8 8 9 10 12 15 16 16 17 19 18 17 17 17 20 19 18

GFSCGP_sfc_30mbdewp_129.txt.gz
Dewpoint
18 18 15 15 15 15 12 9 6 8 10 12 12 10 10 15 25 26 27 27 27 27 28 29 29 29 30 30 30 32 33 36 38 39 40 43 47 52 63 62 63 65 67 68
18 17 18 19 15 11 9 10 11 13 14 14 11 10 20 25 26 27 27 28 27 27 27 28 29 29 29 29 29 30 32 35 36 37 39 41 44 49 50 59 62 64 65 67
18 19 19 17 15 14 12 8 11 13 15 16 16 15 23 27 27 27 28 28 27 27 27 28 28 27 27 27 28 30 31 32 35 37 38 41 43 48 52 52 60 61 64 66
17 16 16 15 14 15 12 12 16 18 18 16 17 13 24 27 26 27 28 28 27 27 28 28 27 27 27 28 30 30 31 32 34 37 39 40 43 46 48 51 52 57 62 65
17 17 16 16 16 12 10 20 19 19 19 19 19 19 23 29 28 27 28 28 27 27 28 28 28 27 28 29 30 30 30 32 34 37 39 41 42 45 47 48 50 51 60 64
21 21 20 19 18 18 21 20 20 20 20 18 19 19 26 25 26 27 27 28 27 27 27 27 28 28 28 29 31 31 30 33 34 37 39 41 43 45 46 48 50 50 54 62
19 17 15 18 16 19 19 19 18 15 14 16 20 19 25 26 27 27 26 27 26 26 27 27 28 27 28 30 31 32 32 33 35 38 40 42 44 48 49 48 50 52 51 51
16 13 20 17 15 17 19 19 19 13 17 21 21 20 24 27 28 27 26 26 27 26 27 27 27 28 28 31 31 31 32 32 35 37 39 42 45 48 51 53 55 54 51 51
16 20 24 21 22 22 18 16 18 21 21 19 24 26 29 27 27 26 26 26 26 27 27 27 28 27 29 30 31 31 31 32 33 36 38 40 41 44 49 51 52 53 51 51
27 20 22 20 22 21 19 20 19 23 18 19 19 26 26 25 26 26 26 26 26 27 26 26 27 27 30 31 31 31 31 31 32 34 37 38 39 41 42 43 44 47 51 51
25 26 22 23 19 18 18 18 27 30 25 21 19 22 29 27 26 26 25 25 27 27 26 27 27 28 29 31 30 30 31 31 31 33 34 36 37 37 37 38 39 40 43 45
27 27 24 23 23 25 22 24 28 24 20 23 23 22 29 28 26 26 25 26 27 27 27 27 28 28 28 29 30 30 30 30 32 32 32 35 35 35 34 35 36 37 38 40
29 26 21 21 25 27 26 24 24 24 24 21 19 19 28 27 26 25 25 25 26 25 26 26 27 27 28 29 30 30 30 30 32 32 32 34 34 33 33 33 33 34 34 34
31 29 27 24 27 32 31 32 25 25 23 24 25 25 26 25 25 25 24 24 24 24 24 24 25 27 27 27 28 29 29 30 31 32 32 32 32 33 32 32 32 32 33 32
26 26 29 28 29 28 28 32 26 25 25 23 27 25 25 25 25 24 24 23 22 23 23 23 25 26 26 27 28 27 27 27 29 30 30 31 32 32 32 31 31 31 31 32
24 25 30 26 24 26 26 31 26 27 25 25 25 23 26 27 25 23 23 22 21 22 23 23 24 26 26 26 26 27 26 26 27 27 28 29 30 30 31 31 31 30 30 30
23 26 28 21 26 30 25 27 27 27 28 27 24 26 26 24 24 23 23 22 21 21 23 22 24 27 25 26 27 27 26 27 26 26 27 28 28 29 29 29 30 30 28 29
25 29 29 24 21 16 27 30 31 27 25 26 26 25 26 25 24 24 24 22 21 21 21 21 21 25 25 24 25 28 28 26 26 26 26 26 27 27 28 28 28 29 30 28
20 29 26 20 19 24 26 26 25 25 25 25 25 25 24 25 24 24 23 24 22 20 19 19 19 19 23 22 22 25 25 26 24 26 27 27 26 24 25 26 27 27 28 28
19 29 24 22 20 16 26 28 30 28 24 26 25 25 25 25 24 23 23 23 24 19 18 17 17 16 15 18 19 19 22 21 22 22 23 27 26 24 21 22 24 25 24 25
16 21 22 23 22 23 28 29 30 22 23 27 26 25 25 25 25 24 23 23 23 17 18 17 15 14 14 15 16 16 17 19 21 21 20 23 23 24 21 19 19 21 21 20
15 23 25 26 21 18 30 29 26 28 28 27 27 26 25 25 24 23 22 21 20 14 13 14 13 13 13 13 14 15 15 16 17 19 21 20 22 21 22 19 19 18 18 16
27 27 26 26 25 29 33 33 33 31 28 28 28 28 27 25 24 23 21 21 12 10 9 9 9 9 10 10 11 12 14 15 17 18 18 19 19 20 21 21 19 18 18 16
27 30 25 25 28 29 32 34 34 34 32 31 30 29 27 24 23 21 21 19 9 8 8 8 8 8 8 9 10 11 14 16 16 16 17 19 19 18 20 20 20 18 17 16
27 27 27 26 29 30 32 32 33 33 33 32 32 29 25 23 23 22 13 10 8 8 9 10 10 9 9 9 10 11 13 16 17 18 17 18 20 19 18 20 20 18 19 18
30 27 24 24 27 26 29 32 32 30 30 31 31 30 27 21 15 12 10 9 9 9 10 10 10 10 11 9 10 12 14 15 18 19 16 18 19 20 18 19 19 21 20 20

GFSCGP_sfc_30mbdewp_135.txt.gz
Dewpoint
18 16 14 14 15 15 15 15 14 14 11 12 12 13 24 27 27 27 26 26 26 27 28 28 28 27 27 27 27 28 28 29 30 30 30 31 31 33 35 38 41 45 45 52
16 14 16 18 19 18 17 17 16 11 12 14 14 16 26 27 27 27 27 26 26 26 27 27 26 27 27 27 28 28 29 29 30 30 31 32 32 33 36 38 40 43 47 53
12 13 16 17 17 17 18 17 12 11 17 19 17 17 25 27 28 28 28 27 26 26 26 26 26 26 27 27 27 28 29 29 30 31 32 33 33 33 34 37 40 44 49 50
13 17 18 18 18 18 15 17 15 14 18 13 18 13 20 26 27 27 27 27 26 26 27 26 26 26 27 27 27 28 29 29 30 32 31 32 32 31 33 35 38 41 46 48
13 15 13 14 16 18 16 19 19 19 18 18 17 15 19 27 27 27 26 26 26 27 27 27 26 26 27 27 28 29 29 29 30 30 32 33 34 35 35 35 37 38 41 44
17 21 21 20 19 18 19 20 19 23 20 14 15 15 19 26 26 26 26 27 27 27 27 27 27 27 27 28 28 28 29 30 30 31 33 34 34 35 37 37 37 38 41 44
17 17 19 20 17 19 19 17 15 12 18 15 21 20 21 26 27 26 25 26 27 27 26 26 26 26 27 28 29 30 30 28 30 32 33 34 34 36 37 39 41 42 41 45
14 12 20 21 17 17 17 17 14 13 13 13 21 17 21 27 27 27 27 27 27 25 26 26 26 27 27 29 29 30 31 28 30 31 32 34 35 35 37 39 42 44 45 46
16 16 22 20 21 19 17 18 21 19 21 19 19 25 27 27 27 27 26 26 25 24 25 25 25 26 27 28 29 30 30 29 31 32 32 33 34 34 35 37 40 44 49 48
20 18 21 23 22 19 20 21 23 24 19 16 21 23 20 26 27 25 25 25 23 23 23 24 25 26 27 28 29 29 29 29 30 31 32 32 32 33 33 35 36 39 43 46
26 22 19 23 20 21 22 21 25 23 21 17 17 19 28 27 26 24 25 25 23 22 22 23 24 25 27 27 28 27 28 29 30 31 32 32 31 31 32 32 34 35 38 39
26 26 21 22 24 25 26 26 27 27 21 25 23 22 29 27 26 26 26 23 23 22 22 22 23 24 26 27 27 26 26 27 29 31 31 31 31 30 30 30 31 34 35 36
27 25 20 19 27 31 29 31 33 31 29 24 22 20 29 27 26 26 24 22 22 21 21 22 23 23 24 26 26 26 26 26 26 28 30 30 30 30 29 29 30 31 33 33
30 27 22 19 20 29 26 25 28 29 23 20 22 23 27 27 26 25 24 23 22 21 21 22 22 23 23 25 26 25 25 25 25 24 26 28 29 29 30 29 28 29 31 31
27 24 27 28 27 25 25 25 24 25 27 24 21 23 26 27 27 25 22 22 22 21 21 22 22 23 23 23 25 25 24 25 23 20 20 24 27 28 28 28 26 27 27 29
25 20 23 21 22 22 21 23 25 24 25 28 28 26 28 28 26 23 23 22 21 21 20 22 23 23 22 22 22 24 24 24 22 21 18 19 20 22 24 25 25 23 24 24
24 22 21 17 20 20 20 23 24 26 29 28 26 26 27 25 24 24 23 21 20 21 19 18 20 20 21 21 21 23 23 24 23 21 19 18 19 18 19 20 20 20 19 21
23 23 23 20 23 15 18 29 29 29 29 28 27 26 26 25 25 25 23 21 21 21 18 17 17 18 19 20 20 21 23 23 22 23 20 19 18 18 16 17 18 19 18 18
25 23 21 20 19 18 20 27 28 28 27 28 27 26 25 24 23 23 23 23 21 19 18 16 16 17 17 18 19 19 20 21 22 22 23 21 19 18 18 17 17 17 17 17
24 25 22 25 19 17 19 28 29 29 24 27 26 25 24 23 21 21 24 24 21 18 15 14 13 12 12 14 17 18 18 20 21 21 22 23 21 20 19 19 17 17 16 16
22 25 24 24 21 22 26 29 30 23 19 27 26 25 24 23 24 24 24 23 18 15 13 12 11 10 10 12 15 16 17 18 20 21 20 21 22 20 20 19 18 18 16 15
17 21 22 23 21 17 30 27 25 26 27 27 27 26 25 26 24 23 22 21 16 13 10 9 7 8 9 10 13 15 17 18 18 20 20 19 20 21 21 19 18 17 16 14
18 20 20 20 20 29 32 31 31 28 27 26 26 26 26 24 23 22 21 17 14 10 9 8 5 3 7 9 13 15 17 19 16 18 19 19 19 19 20 20 19 17 17 15
31 32 29 28 29 29 33 32 31 29 28 27 27 27 26 25 22 19 14 13 9 8 8 6 2 3 4 9 13 15 17 18 14 15 17 17 18 17 17 19 19 19 19 17
30 33 29 28 28 29 32 33 30 29 28 27 27 28 27 25 18 13 15 17 15 10 10 7 3 3 5 8 12 14 16 17 12 13 15 16 17 17 15 13 16 18 21 19
30 30 27 26 27 26 28 33 30 29 28 27 26 27 28 23 20 20 21 17 11 10 10 7 5 5 6 7 11 13 15 17 16 13 13 16 17 15 11 12 13 15 17 18

GFSCGP_sfc_30mbdewp_138.txt.gz
Dewpoint
19 16 15 15 15 14 15 15 15 15 17 12 10 12 24 27 27 26 26 26 26 26 27 27 27 27 27 27 27 28 29 29 30 30 30 30 31 32 33 34 35 37 39 41
16 15 16 18 18 18 18 17 17 17 15 13 13 14 25 27 27 27 26 26 26 26 26 27 26 27 27 27 28 28 28 29 29 29 30 31 31 32 32 33 35 36 39 42
13 15 15 15 17 17 17 17 17 15 15 19 18 16 24 27 28 28 27 27 27 26 26 27 26 26 27 27 28 28 28 29 29 30 30 31 31 32 32 32 33 35 37 40
14 16 18 18 16 16 15 18 17 16 15 13 18 12 18 26 27 27 26 26 26 27 27 27 26 26 27 27 28 28 28 29 29 29 30 31 31 30 33 35 35 35 36 37
14 13 13 13 13 17 15 17 18 18 18 18 18 16 19 26 26 27 26 26 27 26 26 26 26 26 27 27 28 28 28 29 29 29 29 32 32 33 34 36 37 37 38 37
15 19 19 18 19 19 18 18 20 23 20 15 15 15 14 25 26 26 26 26 27 26 26 26 26 26 27 28 28 28 28 29 29 30 29 32 32 33 34 35 36 37 39 40
17 17 19 20 17 19 19 18 13 13 17 12 20 17 15 26 27 26 25 26 26 25 25 25 25 25 27 27 28 29 29 28 28 29 30 30 31 32 32 34 36 37 38 41
13 8 20 21 18 17 17 17 14 13 13 14 21 19 19 27 27 27 27 26 24 23 24 24 24 25 26 27 28 29 28 29 29 29 30 32 31 32 32 34 35 36 39 41
15 16 21 21 22 19 16 18 21 20 21 18 18 22 27 27 27 27 26 25 23 22 23 23 24 25 25 27 27 28 28 28 28 29 31 32 31 30 31 33 33 35 37 39
18 16 20 23 22 19 20 21 17 25 19 18 20 22 19 25 26 26 24 25 22 22 22 22 23 23 25 26 27 27 27 27 28 29 30 31 31 30 31 31 31 32 34 37
24 21 19 23 19 18 21 21 26 26 25 20 15 16 27 27 27 26 25 23 21 21 21 21 22 23 24 26 26 26 26 26 25 27 29 30 29 31 29 28 29 31 32 33
25 24 21 20 23 30 26 26 29 23 23 25 22 21 29 27 26 25 26 22 22 21 21 21 21 22 23 24 26 25 25 24 23 23 26 28 28 29 27 27 26 28 30 31
26 23 19 16 25 26 28 31 32 31 28 21 18 18 28 27 27 27 25 22 21 20 21 20 20 21 22 23 25 25 24 23 22 21 22 24 25 25 26 24 25 26 27 29
30 25 21 19 19 26 26 27 26 26 24 21 20 19 24 27 26 26 24 22 21 20 21 20 20 20 21 22 24 24 23 22 21 19 19 21 23 24 24 24 23 23 26 26
30 25 26 26 27 28 27 25 24 23 23 23 21 22 22 27 27 26 24 23 23 20 21 22 20 20 21 22 23 23 23 23 20 19 18 19 20 22 22 22 22 22 22 25
26 21 23 21 22 22 21 21 21 21 22 24 23 23 28 28 28 25 23 23 21 20 19 21 19 20 20 21 21 23 23 23 22 19 18 18 19 17 20 20 21 20 21 23
25 23 22 19 20 22 18 17 20 22 25 24 23 25 28 26 26 24 23 22 21 19 18 18 18 19 19 20 21 22 22 23 22 21 19 19 18 18 17 16 17 19 19 20
25 23 23 21 22 14 14 25 27 27 28 29 27 27 27 26 25 25 23 22 22 19 18 17 16 17 18 19 20 21 22 22 22 21 20 19 18 18 17 17 16 17 18 19
26 24 21 21 19 18 18 20 28 27 24 29 28 26 25 24 23 23 23 22 22 19 17 16 16 16 16 17 19 20 21 21 21 21 21 21 19 18 18 17 17 16 17 18
24 24 21 22 18 14 19 27 29 29 18 28 27 26 24 23 23 22 24 23 19 16 14 12 11 11 13 15 18 19 19 20 21 20 21 22 21 20 18 18 17 16 15 17
20 24 21 21 20 22 24 28 29 21 16 27 27 25 24 24 24 24 24 20 16 13 11 10 9 9 11 13 17 17 18 18 20 20 20 20 21 20 20 18 18 16 15 15
16 20 22 23 21 17 29 28 25 26 27 27 27 25 24 25 24 23 21 17 14 12 9 6 6 8 10 14 16 17 17 17 18 19 19 18 18 20 20 20 19 18 16 14
18 21 21 23 21 28 31 31 31 29 27 27 26 26 26 24 24 23 19 17 12 9 6 4 3 6 11 14 16 16 17 16 16 17 16 17 16 15 17 18 18 20 18 15
27 29 24 25 26 27 31 33 31 29 28 27 27 26 25 23 22 20 19 15 10 8 4 2 2 5 10 13 15 16 16 16 14 14 15 14 14 11 11 16 17 19 18 15
23 32 29 29 29 29 30 32 30 28 27 27 27 27 24 22 19 16 18 19 12 9 5 3 2 4 9 12 14 15 16 16 12 12 13 14 11 10 12 13 14 15 18 15
32 30 27 25 29 28 27 33 29 28 27 28 27 27 23 18 15 19 22 22 12 10 5 4 2 4 7 12 13 14 15 13 11 11 12 12 11 11 11 11 8 10 12 12

GFSCGP_sfc_30mbdewp_141.txt.gz
Dewpoint
20 18 17 16 16 15 15 16 15 16 18 17 16 12 24 27 27 26 25 25 26 26 27 27 28 28 28 29 29 29 29 30 30 30 30 30 30 31 31 32 33 34 35 37
17 18 17 17 17 17 18 17 16 18 18 16 14 13 23 26 27 27 26 25 26 26 27 27 27 27 28 28 29 29 29 30 30 30 30 30 30 31 31 32 33 34 35 36
17 18 16 15 17 17 18 17 17 16 17 18 18 15 23 27 28 27 27 26 26 26 26 26 26 26 27 28 29 29 29 29 30 30 29 29 30 31 31 32 33 34 37 38
15 16 18 18 15 15 12 17 18 17 16 13 18 12 17 25 26 27 27 26 26 26 26 25 25 25 26 27 29 29 29 29 29 29 29 29 29 29 30 31 33 34 36 38
15 15 14 14 14 17 14 18 18 18 17 19 18 17 18 26 25 27 27 27 26 26 26 25 25 25 26 27 28 29 29 29 29 29 29 29 30 30 30 30 33 34 36 38
16 19 18 17 19 19 19 18 20 24 21 15 16 16 15 23 27 28 27 27 26 24 24 25 25 25 25 26 27 28 28 28 29 29 29 29 29 29 30 30 32 33 35 37
16 16 19 21 17 20 19 18 15 14 17 13 20 18 16 26 27 28 27 27 24 24 23 24 25 25 25 26 26 27 28 28 28 28 28 29 30 30 29 30 31 32 34 35
13 11 19 21 18 17 18 18 14 14 13 14 18 16 22 28 28 27 27 26 23 23 23 24 25 25 25 26 26 27 26 27 27 28 28 29 29 31 29 29 30 31 32 34
15 15 20 21 22 19 17 18 21 18 19 20 18 21 28 27 27 27 27 26 23 22 23 24 24 25 25 27 27 26 26 25 26 26 28 27 27 29 28 29 29 29 32 33
19 15 21 23 22 20 18 20 17 22 17 14 19 22 22 26 27 28 26 26 22 23 23 23 23 24 25 26 28 26 24 24 24 25 27 26 26 27 26 27 27 28 31 32
23 21 19 22 19 18 18 20 25 24 22 19 16 19 27 28 27 28 27 26 22 22 22 23 23 24 24 26 27 25 24 24 23 23 25 25 25 25 26 25 26 29 30 31
26 25 19 18 22 30 29 25 27 22 22 25 23 20 30 29 29 28 26 24 23 23 22 21 22 23 23 24 24 25 24 23 23 22 22 24 24 24 24 25 25 26 28 29
26 22 16 10 26 26 27 29 30 30 28 23 19 18 29 28 27 28 27 24 22 22 22 21 21 22 22 23 24 24 24 22 22 22 21 21 22 22 23 24 25 26 27 29
28 25 20 14 17 22 22 24 26 25 23 21 21 21 24 27 27 28 27 24 22 22 21 21 20 21 22 23 23 23 22 22 21 21 21 20 21 21 22 22 23 24 25 26
29 23 26 26 25 25 25 25 24 22 23 21 20 20 22 24 27 28 28 24 22 22 22 21 21 21 22 22 22 20 20 19 17 17 17 19 20 20 20 21 22 23 23 25
27 24 23 22 23 23 22 23 23 23 23 22 21 21 24 28 29 28 26 23 23 20 20 18 19 19 20 19 19 19 19 19 18 16 16 15 15 14 18 19 20 21 22 22
25 25 23 17 21 21 17 19 20 20 22 21 19 21 28 28 28 27 25 23 22 19 19 19 20 20 20 20 20 20 20 19 18 17 16 16 15 14 14 14 17 18 19 20
26 26 24 18 22 12 14 20 24 24 24 26 27 28 28 28 27 27 25 23 21 18 17 18 20 19 20 20 20 20 20 19 19 18 17 16 15 14 14 14 15 16 16 17
28 25 23 21 17 17 19 18 22 27 23 25 28 28 26 25 25 24 24 23 21 19 18 17 17 19 19 20 20 19 20 19 19 19 20 17 16 15 15 15 15 15 17 17
26 27 25 23 17 12 16 24 30 29 19 27 28 27 25 24 24 25 24 23 20 17 14 13 13 14 16 18 19 18 19 20 19 19 20 21 19 18 17 17 16 15 15 16
23 24 22 21 19 18 24 28 30 21 19 28 28 27 25 25 26 25 23 21 17 13 10 9 10 13 14 16 17 17 16 18 19 17 16 18 19 19 19 19 17 16 15 15
16 19 21 21 19 15 29 28 25 27 29 28 27 27 25 26 25 24 21 17 13 10 7 5 7 11 15 15 13 15 15 15 15 15 14 13 13 15 17 19 17 16 15 15
19 19 20 21 20 26 30 29 31 31 29 28 28 27 26 25 24 22 19 16 12 5 -0 1 5 11 14 15 15 13 14 14 14 12 11 9 8 11 14 15 16 15 14 13
22 27 23 23 24 26 30 32 33 31 29 28 28 27 26 25 23 20 17 14 9 3 -1 -0 5 10 13 14 14 15 14 13 12 11 9 7 7 8 10 10 11 13 12 12
22 29 26 27 28 30 30 31 32 30 28 27 27 27 25 24 21 18 17 18 8 3 -0 -0 3 9 12 14 14 13 13 11 10 10 8 6 7 5 5 5 10 10 12 11
29 27 27 24 27 27 29 32 31 28 27 27 27 25 24 22 20 20 22 17 10 5 1 -0 2 8 11 13 13 13 11 10 9 8 7 7 7 7 6 5 3 9 10 9

GFSCGP_sfc_30mbdewp_144.txt.gz
Dewpoint
21 20 16 19 17 16 15 15 13 14 15 17 17 15 18 24 25 26 26 26 26 27 27 28 29 29 30 31 32 32 32 33 32 31 31 30 30 31 32 33 34 35 36 37
20 16 19 17 17 16 16 15 14 16 17 17 15 14 16 23 24 25 26 26 26 27 27 28 27 27 29 30 31 32 31 32 32 31 31 30 31 31 31 31 32 33 35 37
19 19 18 16 17 17 15 15 13 14 16 16 17 12 18 24 26 27 27 27 26 27 27 27 26 26 27 29 30 31 31 32 32 32 30 30 30 30 29 29 30 32 34 35
18 17 17 17 15 14 12 15 15 15 13 10 17 4 14 22 25 27 27 27 27 27 27 27 26 25 25 27 29 30 31 31 31 32 30 30 29 28 29 29 30 31 33 35
16 16 16 14 14 16 15 18 17 17 16 17 14 14 15 22 21 25 27 28 27 27 27 26 26 25 24 26 27 28 30 31 31 31 31 30 29 29 29 29 29 31 32 34
17 18 16 16 18 19 20 19 19 21 17 12 12 13 8 17 23 26 28 28 26 26 25 25 26 25 24 25 27 28 28 29 31 31 31 30 29 28 29 28 29 29 30 32
14 15 17 20 18 20 17 16 10 9 14 10 17 15 14 21 28 30 30 28 26 26 25 25 25 26 25 24 25 27 27 28 30 31 30 29 28 28 28 29 29 29 30 31
6 12 17 20 16 15 17 15 11 8 9 10 13 11 18 28 29 28 29 29 25 25 25 26 28 26 25 23 26 27 26 27 29 30 30 29 28 28 28 29 30 30 30 31
12 12 19 20 19 17 14 13 20 17 15 13 13 14 28 27 28 28 29 28 27 25 25 26 28 25 25 27 29 26 25 25 27 28 29 28 28 27 27 27 28 29 31 32
19 15 18 19 22 19 16 16 11 16 14 6 4 10 21 28 29 30 31 31 28 25 24 26 28 26 25 29 29 26 23 24 24 25 28 28 27 27 26 27 28 28 30 31
21 21 14 19 15 12 15 11 16 18 14 12 13 14 30 31 32 33 33 32 29 27 28 26 28 27 26 27 28 28 25 24 24 23 24 27 26 27 27 26 28 27 28 31
23 21 12 12 14 22 21 17 21 19 16 22 25 21 31 32 32 32 34 31 29 27 27 27 27 26 27 25 26 27 26 26 26 24 23 23 25 26 26 25 27 27 28 30
24 15 7 4 17 25 21 24 24 24 26 20 20 21 30 30 29 30 33 31 28 27 26 27 27 25 26 25 26 26 26 24 24 26 24 22 22 23 24 26 26 27 28 28
21 13 12 3 8 16 17 18 19 19 21 19 19 20 21 21 24 30 31 30 27 26 25 26 26 26 25 25 24 21 20 20 22 21 23 22 23 23 24 25 25 25 26 27
21 14 18 17 17 19 18 17 17 14 15 16 19 16 16 18 21 23 30 30 26 25 23 24 25 25 24 22 20 17 17 17 16 15 16 19 22 23 23 23 24 24 24 25
27 21 26 25 20 19 17 22 21 20 18 17 17 17 20 23 29 31 31 27 24 23 22 20 20 19 20 17 16 17 16 17 16 14 14 14 14 13 17 19 20 19 21 22
23 19 20 12 12 15 15 20 22 19 16 17 17 19 22 26 29 31 29 26 25 22 21 19 21 21 20 18 18 18 17 18 17 15 14 13 13 12 14 14 16 16 15 19
18 18 17 13 13 11 16 17 16 15 17 19 19 19 20 27 31 31 30 27 25 21 20 22 24 22 21 19 18 18 18 17 19 18 15 15 14 14 14 14 15 16 16 15
21 18 17 16 11 12 13 14 15 16 18 22 24 25 28 28 28 28 28 27 24 21 20 20 21 23 22 20 18 18 19 18 18 19 20 18 17 16 16 16 16 15 17 17
23 25 22 18 17 10 10 15 26 25 18 27 27 28 28 27 27 29 27 25 23 21 18 16 16 16 16 18 17 17 19 19 19 18 19 20 19 19 18 18 17 16 16 18
23 24 22 19 17 15 15 24 28 21 21 29 29 28 28 27 29 29 26 25 21 17 14 13 12 12 12 14 15 14 15 18 18 15 14 16 18 18 20 19 18 18 17 17
15 14 18 17 16 14 26 29 22 27 31 30 29 29 31 29 28 27 25 22 16 12 10 7 9 11 12 11 10 11 12 12 12 12 8 8 12 15 16 17 16 16 15 15
14 13 13 17 14 24 29 25 28 32 28 29 33 30 30 29 28 26 23 19 14 9 3 1 5 10 12 10 9 9 11 11 11 6 5 5 7 8 8 10 12 13 13 12
21 21 22 21 23 21 22 26 31 32 33 32 31 31 30 29 27 24 21 17 11 3 -2 -2 5 8 10 11 10 11 11 10 8 5 3 3 3 2 4 6 7 9 10 10
20 24 23 23 24 26 27 29 32 34 32 30 29 29 28 28 25 21 19 15 12 4 -2 -1 4 7 9 9 9 10 10 8 6 4 2 3 4 3 1 5 7 8 11 10
23 22 24 24 25 25 29 32 34 33 31 29 28 27 27 26 23 20 19 20 12 4 -1 -2 3 7 9 9 9 8 7 7 5 3 4 7 6 6 5 4 5 11 11 12

GFSCGP_sfc_30mbdewp_150.txt.gz
Dewpoint
25 19 18 17 12 19 18 15 8 5 8 9 12 13 13 20 21 21 22 25 26 27 29 30 31 32 32 33 33 33 34 35 35 35 35 35 35 35 34 34 34 34 35 34
22 16 17 16 17 16 14 10 8 9 9 12 14 13 10 11 21 21 23 24 26 28 28 29 30 31 32 32 33 31 32 33 34 35 35 35 35 34 33 32 32 32 33 33
20 16 16 17 16 13 12 11 11 10 11 9 7 6 8 11 20 21 23 25 27 27 28 29 29 30 30 31 32 31 31 32 35 36 34 34 33 32 31 31 31 31 32 32
16 15 14 16 16 11 10 13 13 12 11 5 6 6 6 15 19 22 25 26 27 28 28 28 29 28 28 29 31 31 30 30 33 35 34 33 32 31 31 30 30 30 31 31
15 15 17 16 12 13 11 12 14 13 7 8 8 8 7 12 19 23 25 27 29 29 29 28 28 27 27 28 29 30 29 29 32 34 33 32 31 31 31 30 29 29 30 30
17 17 15 14 13 14 14 11 11 14 15 14 15 14 10 16 19 24 26 28 29 29 29 28 28 27 27 26 27 28 26 25 30 32 32 32 30 30 30 28 28 29 29 29
17 14 15 12 11 12 15 14 12 9 11 12 13 13 12 25 27 27 29 29 29 29 28 28 28 28 27 25 25 26 24 22 25 29 31 31 30 30 29 29 28 28 29 29
11 11 11 14 12 10 16 13 9 2 4 8 13 8 17 28 29 30 31 31 29 30 29 31 30 29 27 24 28 27 24 21 24 25 29 29 29 29 28 28 29 29 29 29
7 5 15 15 14 10 5 6 12 14 15 11 9 8 26 27 29 30 32 32 29 29 31 31 29 28 30 28 30 27 24 22 24 25 26 26 28 28 27 27 28 28 29 30
15 11 12 15 16 15 11 8 8 12 10 8 6 8 18 28 29 30 31 32 33 31 29 30 30 28 31 29 30 29 24 24 23 25 25 24 26 25 25 26 27 27 28 29
15 22 11 12 14 11 4 10 13 10 11 10 10 14 30 25 29 36 34 35 37 35 32 32 29 29 27 30 30 29 28 27 28 25 24 24 25 25 25 25 26 26 27 27
14 17 14 10 12 11 9 11 13 13 10 14 19 20 29 25 35 35 39 37 37 37 33 31 32 28 28 27 27 28 30 29 29 27 25 24 25 25 26 25 25 26 26 26
20 14 9 6 6 5 9 13 12 14 19 18 19 21 25 23 21 23 30 39 36 37 32 31 30 29 27 28 25 29 31 28 29 26 27 25 25 25 27 27 25 25 24 24
17 13 6 8 7 9 14 17 11 14 18 19 20 18 18 17 16 18 19 38 35 34 31 29 29 29 28 27 28 27 22 29 27 30 26 25 26 25 27 29 25 24 24 22
11 6 7 7 7 10 9 9 11 9 10 10 15 13 14 15 17 20 30 36 35 32 30 29 28 29 28 25 21 18 18 18 17 17 18 25 28 29 29 28 27 24 23 22
14 17 20 20 17 13 10 13 11 11 14 14 14 14 17 17 25 28 34 34 33 31 29 28 28 29 24 18 16 17 18 19 17 16 17 17 17 18 21 23 23 22 22 21
17 15 18 16 13 9 8 15 16 13 13 12 11 13 26 29 26 31 33 34 32 30 29 29 27 23 19 17 18 17 18 19 19 17 17 17 18 18 18 19 20 20 20 20
15 17 18 16 13 9 13 12 12 11 12 12 10 11 26 32 29 32 34 33 31 30 28 26 25 23 21 19 19 19 17 20 21 20 19 18 18 18 19 19 19 20 21 20
16 16 15 14 11 10 9 10 12 13 14 15 15 22 25 25 27 32 32 31 30 27 26 26 27 25 22 20 19 20 20 19 20 22 22 20 20 19 20 20 20 19 21 22
14 17 16 15 11 7 10 13 19 19 15 24 25 27 26 25 25 32 34 33 28 25 25 26 25 23 20 19 19 21 22 21 19 20 22 22 22 22 22 21 21 21 20 21
14 14 16 17 15 13 12 15 21 16 20 29 27 26 28 30 32 34 33 30 26 24 22 22 20 18 17 16 17 18 19 21 15 13 15 19 20 23 22 22 21 22 21 21
16 16 17 17 16 14 17 20 18 19 24 22 23 28 30 33 34 33 31 29 24 21 18 17 15 13 12 12 12 11 10 11 11 9 10 10 11 10 13 17 18 18 19 19
10 14 17 17 18 27 27 29 28 24 22 26 29 30 32 34 35 34 31 27 22 18 16 14 12 11 9 9 9 9 9 8 6 5 5 6 5 6 8 11 12 14 16 16
14 14 13 17 19 17 22 23 23 24 28 29 31 32 33 35 34 31 28 26 20 15 13 10 10 9 8 8 8 10 9 8 6 4 4 5 4 5 6 6 11 11 11 12
25 25 20 19 21 21 21 23 28 31 31 29 32 32 31 34 34 30 28 25 20 14 10 7 8 9 9 8 9 9 8 6 4 4 5 7 8 6 8 10 11 13 14 12
21 21 23 26 28 26 27 30 31 29 30 31 31 31 30 31 32 30 27 24 19 12 9 6 6 8 8 8 8 8 7 6 4 5 8 12 11 11 10 11 13 15 15 14

GFSCGP_sfc_30mbdewp_156.txt.gz
Dewpoint
25 25 24 23 23 22 21 17 14 14 14 11 9 10 21 21 21 21 25 27 29 30 31 32 33 33 32 32 31 31 34 35 35 34 33 33 32 33 32 32 31 31 31 31
23 22 26 27 25 21 18 15 14 13 13 12 11 11 18 22 21 21 25 27 29 30 31 32 32 32 32 31 31 30 34 35 34 33 33 33 32 32 31 31 30 31 30 30
23 25 30 28 24 17 17 15 14 13 15 15 10 9 7 15 21 23 26 28 29 30 30 31 31 31 30 30 29 30 33 34 33 33 32 31 32 31 30 30 29 29 30 30
26 28 28 28 25 21 16 17 16 15 14 11 11 8 7 12 23 24 26 28 29 29 30 30 29 28 28 28 28 29 31 33 33 32 31 29 29 29 29 29 29 29 29 30
27 21 19 18 16 17 16 14 13 13 11 11 9 4 7 21 24 26 28 29 29 29 29 28 27 26 27 27 26 25 26 29 32 31 30 29 28 28 28 28 27 28 28 29
30 30 26 16 16 16 16 14 14 13 12 6 10 9 13 24 25 26 28 28 28 29 27 27 26 24 25 27 26 23 24 25 30 29 29 28 28 27 26 26 26 27 27 27
28 29 27 23 14 14 13 13 10 9 9 6 14 14 22 31 27 27 28 29 28 28 27 27 25 24 23 27 26 23 24 24 27 28 27 27 27 27 26 25 26 26 26 26
20 17 21 21 17 13 13 13 11 10 10 10 16 12 26 32 32 31 30 30 29 28 28 29 27 25 21 26 26 23 24 24 26 26 26 26 25 25 26 25 26 26 26 25
17 15 17 17 14 14 11 13 18 15 18 12 14 26 29 32 31 30 29 29 29 29 29 30 26 25 22 26 25 22 24 23 24 24 25 25 24 24 25 25 26 26 25 22
21 14 16 14 14 15 9 15 9 16 7 6 10 14 21 30 30 30 29 29 30 31 30 29 29 26 24 25 26 23 24 24 25 23 24 24 24 24 24 24 24 24 24 22
23 17 13 15 14 12 13 14 13 11 14 8 7 8 28 28 31 31 31 31 31 31 30 29 29 27 26 25 25 24 23 23 24 23 24 24 25 25 24 24 23 22 22 22
19 19 13 13 16 17 15 15 14 12 12 18 15 13 30 31 31 32 31 32 33 32 29 28 29 28 27 27 23 25 26 24 25 25 23 24 25 25 24 23 23 23 20 19
18 18 14 15 14 15 11 11 15 20 21 14 12 13 30 31 31 33 35 35 34 32 30 27 28 27 27 25 25 25 27 27 26 25 24 23 25 26 24 22 20 20 21 19
20 19 16 15 13 14 13 12 24 24 19 20 19 20 22 22 19 19 30 36 35 32 30 28 26 25 25 27 22 25 28 29 29 24 23 21 24 26 26 23 18 17 19 18
17 15 10 15 19 17 16 15 15 12 16 14 15 16 19 18 18 30 35 35 34 33 31 29 28 27 26 27 28 28 28 30 30 25 26 23 25 28 27 23 19 18 18 18
22 18 15 13 17 16 13 16 14 13 14 14 15 15 18 26 35 34 34 35 34 33 32 31 29 27 27 27 27 22 20 21 23 22 22 23 22 23 24 23 22 21 19 18
21 21 16 15 15 15 12 14 12 13 13 12 10 13 30 31 31 32 35 35 34 34 32 30 29 28 26 28 22 21 22 22 22 22 22 22 21 21 21 22 22 21 20 19
19 19 19 14 18 11 13 18 16 15 16 17 16 23 28 30 31 33 33 35 34 33 32 30 29 30 27 22 22 23 23 23 22 22 22 22 22 21 21 20 21 23 21 19
22 20 17 15 15 14 17 16 13 14 13 19 22 28 29 32 32 31 33 33 34 32 31 30 30 26 22 21 24 23 21 21 22 22 21 21 22 22 20 20 20 22 23 21
21 21 19 20 15 12 15 15 17 19 15 27 27 28 29 31 24 23 33 31 31 30 29 28 25 22 22 23 23 23 22 19 18 21 21 22 22 21 22 21 21 21 25 21
18 21 20 18 14 14 17 13 21 13 14 28 27 28 29 26 27 31 34 29 28 27 25 23 21 20 22 22 22 21 21 20 20 21 21 22 23 22 19 19 20 20 20 20
13 15 16 18 15 12 19 18 14 18 29 29 29 30 29 31 34 35 32 27 27 25 25 23 21 20 21 22 20 19 18 19 21 21 20 16 21 18 16 15 16 17 17 17
14 18 17 16 16 20 29 25 26 28 27 29 29 31 32 33 33 33 28 26 26 26 25 24 23 21 20 21 20 18 17 17 18 17 11 10 15 14 11 9 12 13 13 15
20 24 19 21 21 21 27 30 29 29 29 31 31 33 34 32 33 31 27 26 24 24 22 20 19 19 18 18 20 18 18 16 13 9 8 8 11 12 11 11 12 13 12 13
24 26 25 24 26 25 28 29 31 33 32 32 32 32 32 33 34 32 29 27 20 20 16 14 13 12 12 13 13 13 13 11 8 7 7 8 10 9 12 13 13 14 15 13
26 25 23 21 28 27 27 31 33 33 31 31 32 32 33 34 34 33 30 26 18 17 14 12 12 11 12 12 10 11 12 9 10 11 12 12 11 11 12 16 16 16 16 16

GFSCGP_sfc_30mbdewp_159.txt.gz
Dewpoint
26 25 23 23 23 23 22 21 19 17 16 13 11 11 11 22 22 24 28 28 29 30 32 33 33 32 32 31 33 35 34 34 33 32 31 32 32 31 31 31 31 31 30 31
23 23 25 27 27 26 25 23 19 16 14 13 12 11 13 21 22 23 27 28 29 31 32 32 32 31 31 30 32 34 33 33 32 32 32 32 31 31 30 31 30 30 30 31
24 24 27 25 26 26 23 20 16 15 15 15 11 10 10 20 22 22 27 28 30 31 31 31 31 30 30 28 32 33 33 32 32 31 30 30 31 30 29 29 29 29 29 30
24 24 24 23 25 28 26 22 17 16 15 12 12 8 9 12 21 22 26 29 30 31 31 30 30 29 27 28 29 31 33 31 31 30 28 28 28 27 28 28 28 28 29 29
24 26 27 26 27 27 25 21 19 16 13 11 10 9 10 22 21 23 26 29 30 30 30 29 28 27 27 25 25 26 30 31 30 28 28 27 27 27 27 27 26 27 28 28
30 29 28 25 20 17 18 14 15 16 12 8 9 6 7 18 23 27 28 29 29 29 28 27 26 26 26 24 24 24 26 29 28 27 27 27 25 25 25 25 26 25 26 26
35 35 34 30 28 20 14 12 11 10 10 9 12 10 9 29 31 27 29 29 29 28 27 26 24 25 26 25 23 24 25 26 27 27 26 25 25 25 25 25 25 25 25 24
21 20 26 29 29 27 13 13 11 9 9 9 16 10 23 32 30 29 30 29 29 28 27 26 25 24 26 25 23 23 24 25 25 25 24 23 24 25 25 25 25 25 24 23
20 17 19 21 23 25 16 12 16 13 18 13 13 25 30 31 30 30 29 29 28 28 28 28 27 23 25 25 23 23 23 24 23 23 22 22 22 23 23 23 24 24 24 21
22 20 18 14 15 16 16 16 11 17 8 8 10 14 15 29 29 30 29 29 30 29 29 30 27 23 25 24 22 23 23 23 22 23 23 23 23 23 23 23 21 21 22 22
23 20 17 16 13 11 13 12 14 16 13 8 7 9 22 28 30 29 29 31 30 30 30 30 27 24 24 25 22 21 23 23 22 22 23 24 23 23 23 23 23 21 20 21
23 22 19 19 17 17 15 15 14 11 12 17 12 8 23 31 32 31 31 31 31 32 31 30 28 26 23 21 22 21 23 23 23 23 24 24 25 23 20 21 21 21 19 20
20 18 13 14 15 16 14 14 18 21 19 14 12 13 29 32 32 33 31 32 33 32 29 28 28 26 25 24 22 23 24 23 24 24 24 25 25 23 19 19 19 19 19 19
22 21 17 15 15 18 17 17 21 20 16 17 15 14 26 28 30 31 28 32 34 33 28 27 27 27 26 25 23 24 26 26 26 23 22 22 24 25 22 19 17 17 18 17
28 30 30 23 19 15 14 14 21 22 20 17 16 19 20 24 25 23 28 35 34 32 31 28 27 26 26 25 22 25 27 28 29 23 23 22 26 27 25 20 18 17 17 17
25 26 26 20 22 20 14 17 16 15 16 17 14 14 19 22 31 32 33 34 34 34 33 31 28 27 24 27 27 28 27 30 29 26 24 24 26 27 23 22 22 18 17 16
31 29 27 23 19 19 19 15 15 13 12 7 1 4 27 29 30 32 34 34 33 33 34 33 30 28 28 27 27 22 24 25 23 23 22 22 23 23 24 22 21 19 17 17
31 30 29 24 24 17 21 18 16 14 14 14 15 20 25 29 33 34 35 33 34 34 34 32 30 29 27 27 23 23 23 22 22 23 22 22 21 21 21 22 22 20 19 18
34 30 25 21 18 16 16 17 15 14 12 16 16 21 30 32 31 31 33 34 35 35 33 31 30 29 26 24 23 23 22 22 22 22 21 22 21 21 21 20 23 22 20 17
34 31 23 21 13 12 15 15 17 18 13 21 27 28 30 30 25 25 31 33 33 32 31 30 29 25 22 24 23 22 21 21 21 21 21 22 22 21 20 21 21 24 21 19
26 27 24 22 20 19 18 16 21 11 12 27 29 29 31 27 26 27 32 30 31 30 29 28 24 22 22 24 23 21 19 16 21 22 22 22 23 21 21 20 21 23 23 20
18 20 21 23 21 17 19 18 14 16 25 28 29 30 31 30 31 33 32 29 28 27 26 24 21 21 22 22 21 21 20 19 21 22 21 22 21 17 17 18 19 19 17 14
23 24 19 21 20 20 25 22 25 29 29 29 28 30 31 31 33 33 31 28 27 25 24 22 20 21 22 21 20 20 20 21 21 21 18 18 20 15 15 14 14 14 15 14
17 24 19 19 20 19 22 29 28 27 28 31 31 31 33 31 32 32 29 27 26 25 23 22 21 20 21 21 19 17 18 20 20 18 11 16 13 9 10 12 13 12 13 12
22 26 24 23 25 26 28 29 29 30 31 31 33 33 32 32 32 32 29 26 26 26 24 23 22 21 20 21 20 18 18 17 15 11 9 12 13 11 11 12 13 13 14 12
25 23 22 20 25 24 27 31 34 33 32 32 33 33 33 33 32 32 29 26 25 25 21 20 20 20 18 18 19 17 17 14 10 8 9 10 12 12 14 15 16 16 15 16

GFSCGP_sfc_30mbdewp_162.txt.gz
Dewpoint
25 22 21 22 23 22 23 22 21 21 20 15 14 13 12 24 24 27 29 29 29 31 33 34 33 33 32 34 34 34 32 32 31 30 30 32 31 30 30 30 30 30 30 30
25 24 25 26 25 25 26 25 24 22 19 15 13 13 13 21 23 25 28 29 30 31 32 32 32 31 30 33 34 33 32 31 30 30 31 32 31 31 29 29 29 30 30 29
26 25 26 25 25 24 25 25 25 22 18 16 13 11 12 18 22 24 28 29 30 31 32 31 31 30 29 32 33 32 31 31 30 29 28 29 29 29 28 28 28 29 29 28
25 26 26 25 25 26 25 26 24 20 17 16 13 11 10 12 20 22 26 28 30 31 32 31 30 29 28 31 33 32 31 30 29 28 27 27 27 25 27 27 27 28 28 27
29 25 24 23 23 25 25 27 26 23 19 15 12 12 11 21 18 21 25 28 30 31 31 30 29 27 27 28 29 31 30 29 27 27 27 25 24 26 25 26 26 26 26 25
31 29 26 26 23 23 18 15 17 18 13 11 12 11 10 14 18 25 26 29 30 30 30 29 28 26 25 24 25 28 28 27 27 26 25 24 23 24 23 23 23 24 25 24
35 35 35 28 28 28 20 16 14 11 9 10 11 9 10 23 31 31 28 29 30 30 29 27 26 26 24 23 24 25 27 26 26 24 22 24 24 23 23 23 23 23 22 22
24 24 31 36 34 32 28 24 20 12 11 11 16 11 13 31 32 30 30 30 30 29 28 27 26 27 26 23 23 24 25 24 24 20 20 22 23 23 23 23 23 23 23 22
24 22 22 25 29 31 27 22 24 19 18 15 13 20 28 31 30 29 29 29 28 28 28 28 28 26 26 24 24 23 23 23 22 20 21 21 22 21 20 20 21 22 22 21
25 23 23 22 17 18 25 20 16 18 14 13 12 13 14 26 28 29 29 28 28 29 29 29 27 25 26 24 23 23 23 21 22 22 22 22 22 22 22 21 20 20 21 22
23 22 20 16 14 14 14 16 14 17 16 12 11 10 20 22 29 29 29 30 30 30 30 29 27 25 24 22 22 22 23 21 22 23 23 22 21 21 22 21 20 21 21 21
29 24 20 20 20 17 14 15 15 13 12 15 12 10 19 26 30 31 30 30 31 32 31 29 26 24 24 22 21 21 23 21 22 24 23 23 21 19 19 19 19 20 20 20
32 26 19 16 16 17 15 15 18 20 19 15 12 13 25 32 32 32 30 31 32 32 31 29 27 25 22 22 21 20 22 22 23 23 24 24 21 18 17 18 19 19 19 19
34 32 29 22 19 22 17 16 21 18 14 16 16 16 19 25 31 33 33 32 33 32 30 29 27 26 23 22 20 21 23 23 24 23 23 24 22 18 17 18 17 17 17 17
32 29 31 32 31 30 29 20 19 19 19 17 20 23 23 22 30 32 33 30 31 32 30 28 27 26 25 25 22 24 25 25 25 23 22 22 25 24 19 17 16 16 16 16
28 28 29 28 30 31 28 27 23 20 20 22 20 19 23 24 29 28 28 31 33 33 33 31 27 27 26 26 21 24 26 27 27 23 23 23 26 25 21 19 19 17 16 16
31 30 26 23 24 25 25 29 30 18 17 16 14 13 17 22 23 24 29 33 33 33 33 33 30 27 26 27 25 25 27 29 28 25 24 25 27 24 23 22 19 17 17 17
30 30 29 23 27 17 22 24 22 19 14 13 9 13 17 17 28 32 34 33 33 33 34 33 32 28 27 27 26 25 27 28 26 24 22 23 24 23 23 22 19 18 17 16
34 31 26 23 23 22 19 18 18 17 16 18 15 16 24 32 32 31 35 34 31 33 34 33 31 29 28 26 24 23 24 23 23 22 22 22 22 21 22 22 21 18 16 15
33 34 29 24 19 16 17 17 18 16 10 15 17 19 28 30 25 27 31 33 34 35 33 32 30 28 26 25 23 22 22 22 22 22 22 22 22 21 20 22 23 22 19 16
27 29 24 24 22 21 20 18 19 10 10 20 26 27 30 28 27 27 30 32 33 32 31 30 27 26 24 24 22 21 21 21 23 22 23 23 22 21 21 22 24 21 20 16
22 24 24 26 22 19 22 19 12 15 22 26 29 31 31 29 30 31 31 30 30 30 30 26 25 23 24 23 21 20 20 21 23 22 22 23 21 21 20 21 22 21 16 11
22 26 25 25 24 24 21 16 21 21 22 27 28 31 32 30 31 32 31 29 28 28 27 24 23 22 23 22 21 20 20 20 22 21 22 21 17 17 18 18 18 17 14 12
23 28 27 23 21 20 20 28 27 29 29 30 30 31 31 30 32 32 31 29 27 26 25 22 22 21 21 21 21 21 21 20 20 20 18 20 15 13 13 13 13 14 12 10
23 26 24 23 24 25 25 26 28 28 30 31 31 31 30 31 32 32 31 29 27 26 24 22 21 21 21 21 20 20 21 20 19 15 15 17 12 9 11 12 12 12 13 9
25 23 22 20 24 26 25 31 31 30 30 31 32 33 34 33 32 32 31 29 27 26 24 22 21 21 21 21 20 18 20 19 17 12 12 14 13 12 12 14 15 14 14 14

GFSCGP_sfc_30mbdewp_168.txt.gz
Dewpoint
35 30 28 26 24 22 22 21 20 20 20 22 20 20 20 21 26 28 30 32 33 34 34 35 36 36 35 36 36 35 36 36 33 31 29 29 26 26 25 25 31 31 31 31
32 29 29 30 28 26 24 23 22 23 24 25 22 21 21 20 23 24 27 30 32 33 33 35 36 35 36 36 35 35 33 32 28 26 27 27 27 26 24 25 28 30 28 29
30 28 29 29 28 26 26 25 24 24 25 25 24 22 22 22 20 22 25 28 31 33 33 34 35 35 36 36 36 33 32 30 29 27 25 26 27 25 21 21 21 26 26 27
30 31 30 28 27 28 26 27 26 25 25 23 22 19 19 19 18 21 24 27 30 32 33 34 34 34 35 35 35 33 31 29 28 25 23 22 16 16 20 18 19 20 24 24
29 28 28 28 27 28 27 28 27 27 26 25 24 22 19 21 17 20 23 26 29 31 32 33 33 33 34 35 35 33 31 28 26 24 22 21 19 18 17 17 18 21 21 21
31 31 28 28 28 29 28 27 24 23 22 21 21 21 18 18 20 19 22 25 29 30 32 33 33 33 33 34 34 33 30 27 26 22 22 21 20 17 14 15 14 16 18 18
31 32 32 28 26 26 26 23 22 19 17 16 16 16 18 18 20 20 23 25 29 30 32 33 32 32 32 33 34 32 28 25 23 21 21 20 20 19 16 14 15 17 17 16
24 23 30 32 29 25 24 23 21 15 15 15 16 15 16 24 29 31 30 27 28 31 32 33 32 32 32 32 32 29 27 24 20 19 19 19 17 14 14 17 17 18 18 17
26 23 27 32 31 30 27 26 25 24 24 24 23 21 23 25 27 29 29 30 29 30 32 33 33 32 31 31 32 30 27 23 17 18 19 18 17 16 15 17 18 19 20 17
29 24 23 24 27 30 29 26 27 29 24 20 20 19 22 28 24 30 32 31 32 31 31 33 35 33 31 33 33 30 27 21 18 18 19 18 19 17 16 16 18 20 21 21
28 30 23 24 21 20 24 25 24 20 21 20 19 20 21 23 31 28 37 35 33 32 33 33 37 33 31 32 32 32 26 22 20 20 20 20 19 16 16 17 20 21 21 20
25 31 26 23 24 23 21 19 20 22 23 20 23 24 25 24 27 30 34 36 36 34 37 35 35 35 32 30 30 31 28 28 25 23 22 22 21 18 17 19 19 21 21 20
36 31 23 18 20 22 22 22 22 21 22 22 24 24 25 25 25 30 33 35 36 35 37 38 35 33 33 30 30 30 29 25 28 29 28 24 23 21 24 23 22 23 22 22
34 32 29 24 21 27 29 24 27 30 27 24 23 21 21 24 27 32 32 35 35 35 36 35 34 33 31 29 29 25 23 24 26 26 29 28 26 25 24 24 24 24 23 23
29 27 24 25 24 22 25 28 28 27 29 27 26 23 24 22 24 28 28 34 34 34 34 33 33 32 31 29 26 23 22 23 25 24 25 26 26 25 24 23 23 23 24 24
25 26 24 25 24 24 24 25 27 26 24 24 24 24 24 23 26 27 28 31 32 32 32 32 32 32 31 29 25 22 22 23 24 23 24 23 23 22 22 21 21 20 22 23
24 24 24 21 20 19 22 25 24 22 22 23 23 24 24 23 26 28 27 31 31 31 32 32 33 32 31 29 25 22 22 23 23 23 23 24 23 20 21 20 18 17 18 20
24 23 24 19 19 16 15 16 18 18 20 23 26 25 24 22 23 26 30 32 31 32 32 33 34 32 31 29 26 24 23 24 23 22 22 24 23 21 20 18 17 16 12 11
25 25 23 19 13 11 11 13 15 21 19 20 23 24 26 22 28 26 29 31 34 34 33 34 35 34 32 30 27 25 24 24 23 23 23 23 24 21 20 18 18 15 12 11
28 29 27 23 17 9 10 18 19 22 20 22 20 25 27 25 23 23 32 31 33 34 32 33 33 33 32 31 29 26 26 26 25 25 25 26 24 21 21 20 19 18 17 15
24 27 24 22 22 25 19 24 22 17 18 24 20 22 23 23 23 28 34 35 34 32 33 34 33 32 32 31 28 27 28 27 27 26 25 24 24 25 25 23 21 20 18 14
15 21 20 23 20 15 30 24 20 27 27 26 25 26 26 26 31 33 35 34 33 33 33 33 33 32 31 31 29 28 27 27 26 25 23 23 24 22 22 23 22 21 20 17
22 21 18 23 22 30 31 31 31 31 31 28 28 27 30 31 32 35 36 34 32 32 32 32 32 32 30 29 29 26 24 24 23 22 21 21 21 18 19 21 21 19 17 14
22 25 24 26 24 25 26 33 34 34 31 31 30 31 32 31 32 34 34 32 31 30 30 31 30 30 29 28 25 23 22 22 22 21 21 19 17 17 18 18 18 16 14 12
21 23 22 21 22 23 26 31 33 33 30 29 28 32 31 30 30 30 30 30 30 30 30 30 29 28 27 26 23 22 22 21 21 20 18 17 17 17 16 14 14 12 13 11
21 20 19 20 21 25 23 22 29 33 32 31 30 33 35 33 32 34 33 31 30 30 29 29 29 29 26 25 23 22 22 21 20 17 15 15 15 13 11 9 11 15 15 12

GFSCGP_sfc_30mbdewp_171.txt.gz
Dewpoint
33 31 27 25 26 24 23 22 20 21 21 19 18 16 16 19 21 23 25 29 33 34 35 36 36 36 35 37 37 36 38 38 36 34 32 31 29 28 27 26 32 30 31 31
31 29 31 28 27 26 27 23 23 24 23 23 22 22 22 21 21 23 23 27 30 33 33 35 36 36 36 37 36 37 36 35 32 30 30 29 29 26 25 26 30 29 28 29
30 29 30 30 28 26 26 25 24 24 24 24 24 23 23 24 24 23 24 25 29 32 33 35 36 36 37 37 37 36 34 32 30 30 29 29 29 27 24 22 21 27 26 27
31 31 29 28 27 26 24 25 25 25 24 22 24 20 22 22 20 23 22 23 27 31 33 34 36 36 37 37 37 35 33 32 31 28 26 27 23 22 22 19 21 22 25 23
29 28 29 28 28 28 26 26 26 26 26 25 24 22 22 22 20 22 22 23 26 30 33 34 35 36 36 37 37 35 33 30 29 27 27 26 23 23 20 19 21 23 23 23
32 31 30 28 28 28 27 27 28 28 26 24 24 22 21 20 21 21 21 22 25 29 32 34 35 35 35 37 36 35 32 30 28 26 27 26 25 21 18 19 17 18 19 19
30 31 31 30 27 27 28 27 24 22 21 20 19 17 21 20 19 21 22 23 25 29 32 33 34 34 34 36 36 35 31 28 27 26 26 25 25 23 21 17 18 17 18 18
25 22 26 31 28 26 26 26 23 18 19 20 22 19 17 24 23 24 23 23 25 29 32 33 34 34 34 36 36 34 30 27 25 25 24 23 22 19 19 20 19 19 19 20
24 22 25 30 31 29 26 25 25 23 23 23 24 23 24 24 22 24 26 26 26 29 31 33 34 34 33 36 37 33 29 26 24 24 23 22 21 19 19 21 21 21 21 17
29 28 27 25 26 27 26 26 26 34 27 22 19 18 22 25 24 27 28 27 28 29 31 33 35 34 34 40 38 33 30 26 23 23 23 22 22 20 20 21 22 23 23 23
28 29 24 25 23 22 21 25 25 26 28 27 21 22 21 27 27 26 35 34 32 31 32 33 37 34 34 37 36 36 30 26 24 23 23 23 21 20 20 21 22 23 23 22
28 28 26 24 24 24 25 24 23 25 25 25 24 25 26 26 27 25 27 40 37 35 37 35 37 36 36 34 35 36 32 31 26 25 24 24 22 20 20 21 23 24 23 22
36 30 24 20 21 22 24 25 21 21 25 29 26 25 26 25 24 24 27 37 37 36 38 37 37 36 37 33 36 35 33 26 28 33 30 25 24 23 25 24 24 25 24 23
34 29 25 19 18 27 28 30 26 31 29 26 24 23 23 23 23 25 27 33 37 36 38 41 39 38 36 33 34 30 29 26 28 28 33 31 31 29 28 27 27 27 25 25
32 28 28 29 23 21 20 21 20 19 23 24 27 25 25 24 23 31 33 32 35 36 37 38 38 37 35 33 31 29 28 26 27 25 27 28 29 28 27 26 25 25 26 25
22 24 23 21 18 17 16 18 20 19 20 20 20 20 21 22 24 25 29 27 31 34 35 36 36 35 35 32 30 28 26 26 26 25 25 25 25 24 24 24 23 23 24 24
24 24 22 20 16 14 15 21 21 19 17 16 15 18 20 20 24 26 26 27 27 26 32 34 34 35 34 32 30 28 26 26 26 25 25 24 23 21 22 22 21 20 21 22
22 24 22 20 17 14 14 14 12 11 11 11 14 16 19 20 22 24 28 28 28 26 30 34 35 34 34 33 30 28 26 26 26 25 25 24 23 21 21 20 19 18 18 18
22 21 21 20 18 14 12 10 9 7 9 12 13 17 17 19 22 25 29 28 32 33 33 34 36 37 34 32 30 27 26 26 26 25 25 25 23 21 21 18 18 17 13 12
19 21 21 21 17 11 11 12 31 28 16 19 21 21 22 22 26 25 31 30 27 36 34 34 36 35 33 32 30 27 27 27 26 25 27 27 24 22 21 20 19 17 15 17
20 22 22 23 21 23 27 21 25 18 19 26 25 23 22 26 36 32 30 29 30 34 34 34 34 33 32 31 29 27 27 28 26 26 26 26 25 25 25 22 21 19 18 15
10 15 18 19 19 15 29 27 26 29 30 28 27 28 30 27 31 31 33 34 32 32 31 31 31 32 32 31 30 28 28 28 28 27 26 25 25 23 22 23 22 20 20 20
20 19 15 22 24 32 35 26 28 31 33 31 31 33 30 31 30 31 34 32 30 31 31 31 31 32 32 31 30 29 30 29 28 27 25 24 24 22 21 21 21 20 19 18
26 20 22 21 21 21 21 26 28 32 35 36 34 31 29 30 30 35 36 32 30 30 30 30 31 31 32 31 30 30 30 29 27 26 23 23 22 19 19 20 19 18 18 16
24 31 20 19 20 20 24 26 27 32 33 33 32 31 30 31 30 33 33 30 28 27 28 30 31 31 31 30 30 28 27 26 24 23 22 22 20 16 17 17 17 16 17 15
24 21 24 23 20 23 24 25 23 21 29 31 29 30 29 33 38 33 31 29 27 28 29 29 30 30 30 29 27 25 25 24 23 22 22 20 17 16 16 15 15 18 17 19

GFSCGP_sfc_30mbdewp_174.txt.gz
Dewpoint
34 33 31 29 27 26 24 22 20 21 22 21 18 19 19 18 20 21 23 23 31 35 38 39 39 38 37 40 40 41 42 42 40 38 36 35 33 32 31 34 33 32 33 33
33 31 32 32 31 28 26 24 23 23 22 23 22 22 22 22 22 21 22 24 30 35 37 38 39 38 39 40 40 40 41 41 39 37 36 35 31 30 29 32 33 31 31 32
33 32 32 30 29 28 28 26 26 25 23 23 24 23 24 24 25 25 22 24 29 35 36 37 38 38 39 39 40 39 40 38 36 35 33 33 32 30 29 28 29 29 28 27
34 35 33 30 28 28 28 29 27 25 23 21 23 20 23 23 24 25 25 25 28 34 36 37 37 38 38 40 40 38 36 34 34 33 32 31 30 28 25 24 26 28 27 26
32 31 30 30 30 30 28 29 27 26 25 26 25 23 23 24 23 24 24 27 28 33 35 36 37 38 38 40 40 38 36 34 33 31 32 30 29 29 25 26 26 27 27 26
33 33 31 29 29 29 29 28 29 32 27 26 26 24 24 25 25 24 25 26 28 33 35 36 37 38 38 39 39 38 35 32 31 31 31 30 28 25 24 24 23 23 23 26
32 32 32 31 29 29 28 27 26 29 27 26 27 23 24 23 21 23 26 25 28 33 35 36 36 37 37 39 39 37 34 31 31 30 31 31 28 26 25 23 22 22 22 24
28 26 30 31 29 27 26 26 27 24 21 22 22 20 22 25 23 22 23 26 26 30 35 36 36 37 37 39 39 36 33 30 29 30 30 29 28 25 24 24 23 23 24 25
28 25 26 27 30 30 27 25 27 27 27 25 24 24 26 27 24 25 23 23 26 29 33 36 37 37 37 39 39 37 32 29 29 29 27 26 25 24 25 26 26 26 23 25
28 27 28 29 27 26 30 29 29 34 27 26 23 22 24 28 30 31 28 27 27 30 33 36 37 37 37 40 40 37 32 29 29 27 27 26 25 26 26 26 26 27 26 25
28 28 26 26 24 23 23 24 27 28 33 28 24 23 26 29 26 27 32 32 31 31 32 36 37 37 39 41 39 36 32 29 28 28 27 26 25 25 26 26 26 26 25 24
32 31 27 25 25 24 23 27 27 27 29 28 28 26 30 30 30 28 28 39 37 34 36 36 38 37 40 39 37 36 35 31 30 29 28 27 25 25 25 26 26 26 25 24
36 32 25 21 23 24 26 30 34 34 31 30 28 26 28 27 26 27 27 34 40 38 39 39 38 38 39 37 38 38 33 30 31 31 30 27 26 26 27 27 27 27 26 25
34 30 26 21 21 23 29 28 28 31 27 28 29 31 30 28 26 27 30 33 40 37 39 41 39 38 37 36 37 36 30 30 33 33 32 31 31 29 30 30 29 28 27 26
32 26 25 24 22 21 22 21 20 18 25 25 26 24 23 24 24 26 27 33 37 37 38 39 39 38 36 36 35 33 30 29 30 32 31 30 30 30 29 27 27 27 26 25
29 27 27 25 22 20 18 18 16 15 15 16 17 20 23 23 22 22 23 24 32 35 36 38 40 39 36 35 34 33 31 29 29 29 29 28 27 27 26 26 26 26 25 24
22 26 26 22 22 18 20 21 20 18 17 17 15 16 17 18 19 20 20 23 26 33 36 38 39 39 36 34 33 32 30 29 28 27 27 26 25 23 24 24 24 23 24 24
21 22 23 22 21 16 17 13 12 11 11 11 11 11 16 19 20 21 21 23 26 29 32 37 39 38 36 35 34 34 30 29 28 27 26 26 24 23 23 22 22 22 23 23
21 22 21 20 20 17 16 13 11 14 17 18 25 26 27 25 29 31 37 31 32 36 37 39 40 38 37 36 35 32 29 29 28 28 26 26 24 23 23 22 21 22 21 21
19 23 23 21 16 10 13 12 22 31 21 33 31 28 29 26 26 31 39 40 39 38 40 40 39 40 36 35 33 31 29 29 28 28 28 27 25 24 23 22 22 20 18 19
27 26 23 24 23 23 17 26 29 18 26 31 31 27 30 30 32 36 39 40 38 36 38 40 40 37 37 35 31 29 28 29 29 28 29 28 27 26 25 24 23 20 20 18
12 20 24 22 20 15 33 28 28 30 29 29 30 30 32 32 31 35 34 41 41 34 36 37 35 35 34 34 30 29 28 29 28 28 28 28 27 25 25 25 23 23 22 22
20 25 26 24 20 32 34 33 30 27 29 32 34 33 33 34 35 34 35 36 35 34 34 34 33 33 32 31 30 28 29 28 28 28 27 28 27 25 24 24 23 22 22 22
22 28 26 29 20 27 33 36 34 31 31 33 34 35 32 33 35 36 36 35 32 31 30 31 32 32 31 30 30 30 29 29 28 28 27 27 26 23 23 23 22 22 22 21
20 19 25 28 22 23 26 26 26 24 31 30 31 30 29 30 34 37 37 34 31 30 30 31 32 32 32 31 31 31 30 30 29 28 26 26 25 22 22 21 20 20 22 20
18 18 29 27 26 25 22 25 26 21 18 27 30 28 29 29 37 37 40 39 33 29 29 31 32 32 32 31 31 31 31 30 28 27 25 25 24 21 21 19 20 23 22 22

GFSCGP_sfc_30mbdewp_177.txt.gz
Dewpoint
36 35 35 34 32 29 28 26 24 25 25 24 22 23 15 15 17 19 21 30 35 37 41 39 39 39 42 42 41 42 42 42 40 38 36 34 33 34 34 33 33 33 32 34
35 33 33 35 34 32 31 29 28 28 27 26 25 24 24 22 19 19 21 23 32 37 39 38 38 38 40 40 40 42 42 41 39 39 37 36 33 34 34 32 31 31 30 31
34 34 35 34 32 31 31 30 29 28 28 27 26 24 23 25 24 22 22 23 31 37 39 38 38 39 39 39 41 41 41 40 40 38 36 32 30 31 32 30 29 29 27 28
35 35 35 34 34 33 29 30 30 29 27 25 25 22 23 23 24 25 24 23 27 37 38 38 38 39 39 40 41 41 41 40 38 33 31 28 27 28 30 29 28 27 27 26
33 34 34 33 34 34 32 31 28 28 26 27 27 25 25 26 27 27 28 27 27 36 38 37 38 38 39 40 39 40 39 35 34 33 32 30 30 26 27 28 28 27 26 26
36 36 35 33 32 32 31 31 29 32 33 29 27 26 25 26 28 28 28 28 32 36 37 37 37 38 39 39 39 37 34 32 31 34 33 30 25 25 25 26 27 27 27 26
34 34 34 35 33 32 30 27 25 27 31 29 31 29 28 27 28 28 26 29 29 35 37 37 37 37 39 39 38 35 32 31 31 32 32 28 25 24 24 26 24 25 26 25
31 30 32 33 32 31 30 28 26 24 25 25 27 26 26 27 28 27 28 33 35 36 36 37 37 37 39 38 37 33 31 31 30 31 30 28 27 26 26 24 26 26 26 26
31 30 31 31 32 32 30 27 29 28 29 28 28 26 27 30 30 30 26 30 34 35 36 37 38 38 39 39 36 33 31 30 30 31 29 26 26 25 26 26 26 27 27 26
30 27 29 31 27 28 32 36 33 33 27 25 30 29 25 27 31 30 31 29 31 36 36 37 38 38 40 40 37 33 31 30 31 29 27 27 27 27 27 27 25 26 27 26
31 31 29 29 25 24 25 29 35 35 34 28 25 25 29 29 30 30 30 32 32 36 37 38 38 38 40 40 37 32 30 30 28 28 26 26 26 27 28 27 27 26 26 25
36 34 30 29 29 28 30 33 32 30 30 32 31 27 33 32 29 32 31 37 37 37 39 38 38 39 40 39 36 32 31 31 29 28 28 26 27 28 27 26 26 26 25 26
34 32 27 24 24 30 32 34 35 33 32 28 27 27 32 30 29 28 28 33 38 39 39 38 39 40 40 38 35 33 31 31 31 30 28 26 27 27 27 26 26 25 26 26
32 31 28 23 24 24 22 24 26 31 25 25 26 27 26 26 25 25 26 31 34 38 40 39 39 40 39 37 35 32 30 31 31 30 28 27 28 28 28 28 27 27 27 26
32 26 26 25 24 24 22 21 21 23 27 24 22 22 23 24 24 24 25 27 33 37 39 39 38 38 38 37 35 30 30 31 31 31 29 30 30 29 28 26 25 25 24 24
33 28 28 26 26 26 23 22 21 20 20 19 18 18 20 20 20 21 24 24 30 37 39 39 38 37 37 36 33 29 31 31 31 30 29 30 29 27 26 26 25 24 23 23
27 29 26 21 23 23 21 22 22 21 21 20 19 19 20 20 20 20 33 35 34 29 38 40 38 37 36 36 33 29 30 30 30 30 29 29 28 26 25 25 25 24 23 25
26 29 28 23 21 15 17 21 22 21 21 17 16 25 29 28 27 36 37 36 36 38 37 39 39 37 36 36 34 31 31 32 31 30 29 27 26 25 24 25 24 24 24 23
26 25 22 19 18 17 18 18 16 19 20 30 29 29 31 31 29 32 36 40 38 41 41 41 41 38 37 36 34 32 31 32 31 29 28 26 25 24 24 24 23 23 24 23
23 23 22 20 18 12 14 22 28 28 19 34 33 31 31 31 27 31 37 38 40 42 42 41 42 40 36 35 35 35 33 33 29 28 27 27 25 24 23 23 23 24 24 23
20 23 23 23 21 20 27 30 31 18 22 32 33 32 30 30 33 35 36 37 39 42 41 42 42 39 37 37 37 35 34 31 29 28 28 27 25 25 25 24 23 22 22 23
17 18 22 25 22 20 32 30 24 30 33 32 33 33 33 33 35 36 37 36 38 39 41 41 40 40 40 39 38 36 33 30 29 28 27 26 26 24 25 24 23 21 21 22
22 25 22 23 24 33 35 32 34 32 30 31 34 35 34 33 34 38 38 36 37 40 41 41 40 40 40 38 38 35 29 29 29 28 27 27 27 25 25 23 22 22 21 21
24 27 21 25 30 32 33 35 36 34 31 32 34 35 35 32 35 36 38 39 39 36 36 36 36 35 35 37 34 29 30 29 29 28 28 27 25 25 25 23 22 22 21 21
23 23 21 21 26 32 34 36 35 34 32 30 31 31 30 30 36 36 40 40 40 37 34 33 33 33 32 31 30 30 29 28 28 28 28 27 25 24 24 23 23 22 22 21
18 17 20 24 30 31 32 33 29 23 25 31 31 30 29 33 35 36 38 38 40 39 33 33 33 32 31 30 31 30 29 28 28 27 28 27 25 24 23 22 22 24 23 23

GFSCGP_sfc_30mbdewp_180.txt.gz
Dewpoint
36 35 35 35 33 32 31 28 27 27 27 26 24 24 23 23 17 16 40 42 41 42 44 41 40 42 42 43 43 43 42 41 39 37 35 34 34 34 34 33 33 33 33 33
36 35 35 36 37 35 33 30 29 29 30 28 28 27 27 26 22 16 29 39 40 41 42 40 40 41 42 42 42 42 41 40 37 36 34 34 34 34 32 32 31 31 32 32
36 35 36 35 34 34 34 33 32 31 31 31 28 27 26 26 25 22 21 33 38 39 40 39 39 41 42 41 42 42 41 39 38 36 36 34 34 33 31 30 28 28 30 31
37 38 36 34 34 34 32 34 32 31 30 28 28 25 26 25 25 25 22 23 32 37 39 39 39 40 41 41 41 41 40 39 38 38 34 31 31 30 30 28 28 27 27 28
35 35 35 35 34 34 33 34 34 33 29 28 27 25 26 27 26 26 27 23 27 36 39 38 38 40 40 40 41 41 40 39 38 36 32 29 29 29 30 28 26 26 27 27
37 36 35 34 35 35 34 33 31 33 32 31 32 26 25 26 27 27 28 30 27 37 39 38 38 39 39 40 40 40 39 38 35 33 31 30 28 29 28 28 26 26 27 27
35 36 37 37 35 35 35 32 28 28 30 29 30 27 26 28 31 30 29 30 31 35 38 38 38 38 39 39 40 39 37 35 34 33 31 30 28 27 27 27 27 26 26 25
31 28 33 35 35 33 34 33 28 24 25 26 31 28 29 29 29 30 33 34 32 33 38 38 38 38 39 39 38 36 33 32 33 33 31 28 26 27 28 28 28 27 25 25
31 30 31 32 34 34 32 30 32 29 29 28 27 28 29 33 33 31 33 35 36 37 37 37 38 38 38 38 37 34 32 31 32 31 29 27 27 27 27 28 28 27 27 26
34 30 30 30 28 31 32 36 30 33 27 26 28 29 27 28 30 31 31 33 36 37 37 37 38 39 38 38 35 33 32 31 32 29 28 27 27 28 28 28 27 27 27 26
35 33 31 31 28 29 30 35 38 36 32 27 27 28 30 30 31 31 31 37 36 36 37 38 38 39 39 38 34 33 31 31 30 28 27 27 27 28 27 27 27 27 26 26
35 33 29 30 32 36 37 36 36 30 29 32 30 29 31 33 32 27 25 32 39 38 38 38 39 39 39 37 33 32 32 32 30 29 27 27 28 28 27 26 27 27 26 26
36 33 27 25 28 33 34 34 33 32 31 28 28 29 33 31 28 25 23 27 33 37 39 39 39 40 39 37 34 33 32 31 30 29 28 28 28 28 28 27 27 27 26 26
35 31 27 21 24 26 24 31 32 29 25 26 26 27 25 22 23 24 27 28 29 36 37 38 39 39 39 38 34 32 32 31 30 28 28 28 28 29 29 28 27 27 27 26
32 27 27 26 26 25 24 25 23 22 25 22 21 21 22 23 24 24 26 27 27 31 38 37 39 39 40 37 34 32 31 30 29 27 27 29 30 30 29 27 26 26 25 24
33 26 28 25 26 26 27 25 24 24 22 22 25 22 21 20 20 22 23 25 24 25 27 38 39 40 39 36 33 31 30 30 28 27 27 29 29 29 28 26 25 24 24 23
32 30 27 22 25 25 24 26 26 23 21 21 19 20 22 23 26 32 32 34 34 35 37 38 39 39 38 36 33 30 30 30 28 27 28 28 29 29 28 27 24 24 24 25
32 30 28 23 24 16 18 23 25 23 22 22 22 23 27 28 30 35 37 37 37 36 39 39 40 39 38 38 33 31 31 30 28 28 29 29 29 29 27 25 23 22 24 25
34 31 25 21 20 18 18 16 15 15 16 30 27 29 30 31 31 32 35 37 38 39 40 42 41 39 39 37 33 32 31 30 29 29 29 30 30 28 26 24 23 22 23 23
30 33 27 22 16 11 17 27 27 25 18 32 33 31 31 31 27 27 34 36 37 39 42 41 42 39 38 36 34 33 31 31 30 31 31 31 30 27 25 23 22 22 23 23
26 27 23 21 18 19 28 31 30 15 16 30 32 33 32 30 32 34 37 38 37 39 41 42 40 37 37 37 33 33 32 32 33 32 31 30 29 24 24 24 23 23 24 24
25 23 22 23 21 18 32 30 25 26 32 29 32 34 32 33 34 35 37 38 37 38 40 41 39 37 37 37 35 34 34 34 33 32 30 29 27 24 24 24 24 24 24 24
22 24 21 24 22 33 34 30 31 34 30 31 32 34 35 33 32 35 36 38 38 38 40 41 39 37 38 38 37 35 36 34 32 31 31 27 25 24 25 24 23 23 23 23
25 28 20 19 28 26 31 34 35 36 34 31 32 33 34 33 33 35 38 40 39 38 41 42 40 39 38 39 38 37 35 33 32 29 27 26 25 24 24 23 22 22 21 21
22 22 21 22 24 31 32 33 35 37 38 34 31 32 32 33 34 36 37 39 40 40 39 37 39 40 39 39 38 34 31 30 28 27 27 26 25 25 23 22 21 20 21 21
18 18 17 16 28 27 29 32 36 36 36 36 31 31 31 30 34 37 37 39 39 39 37 34 35 36 37 38 35 30 30 30 28 28 27 26 26 25 23 22 22 22 22 23

GFSCGP_sfc_30mbdewp_183.txt.gz
Dewpoint
37 37 35 36 35 35 35 34 31 29 29 29 28 27 28 28 29 36 41 43 44 45 46 46 45 45 45 46 46 44 42 41 39 39 38 36 35 35 34 33 34 34 34 34
36 35 35 37 37 35 34 33 32 32 32 31 30 30 29 28 28 24 25 41 43 44 44 45 43 43 44 45 45 44 42 40 38 37 36 35 35 34 33 33 33 33 33 34
36 36 37 36 35 35 35 34 34 34 34 33 32 30 31 30 29 27 20 32 42 42 43 44 42 42 44 44 44 43 41 39 37 35 35 35 33 32 31 30 30 31 32 33
39 40 38 37 35 35 33 34 34 33 32 30 31 27 29 29 28 26 25 25 38 41 42 42 41 42 43 43 43 42 41 38 36 35 34 32 31 29 29 28 28 29 31 31
36 37 37 37 36 36 34 35 34 34 33 33 32 29 29 29 27 27 27 25 28 39 41 41 41 41 42 42 42 41 40 37 36 34 33 32 31 30 29 28 27 27 29 29
38 38 36 35 36 36 36 34 34 33 32 30 31 28 28 28 28 28 29 28 25 33 40 40 41 41 41 42 42 41 39 37 37 34 33 32 31 30 28 27 26 26 27 27
38 39 40 38 36 36 35 33 32 29 30 28 31 31 30 30 30 31 31 31 28 27 38 40 40 40 41 41 41 40 39 38 37 34 32 31 31 29 27 26 26 26 26 26
31 27 36 39 37 34 34 33 30 24 26 27 32 28 29 31 32 34 35 36 36 33 37 39 39 40 40 40 40 40 39 37 35 34 32 31 30 29 28 27 27 27 26 25
31 30 33 35 37 36 34 32 33 31 30 29 28 29 30 32 32 31 36 36 37 37 38 38 39 39 39 40 40 39 38 36 36 35 33 30 30 29 29 29 28 27 27 26
33 30 31 30 30 34 33 34 31 34 28 26 30 28 26 31 28 29 33 37 36 37 38 38 38 39 39 40 40 38 37 37 37 35 32 29 29 29 29 29 28 27 27 26
35 33 31 31 29 28 33 34 36 35 34 26 24 27 30 31 31 31 33 35 36 37 38 38 39 39 39 40 37 36 36 36 35 32 30 29 29 29 29 28 28 27 27 26
39 35 31 33 36 37 37 35 37 32 29 32 31 29 32 35 32 32 33 35 36 37 38 39 39 39 38 37 36 37 37 35 32 30 29 28 28 28 28 28 27 27 26 26
37 34 28 30 33 36 34 35 34 32 31 28 27 29 35 37 36 35 33 31 32 33 40 42 39 39 39 37 36 35 34 33 32 30 29 29 28 27 28 28 27 27 26 26
36 32 29 23 27 30 30 33 33 31 26 26 27 28 32 33 32 29 30 30 30 31 35 39 39 39 39 37 35 34 34 33 31 30 29 29 28 28 28 28 28 27 27 26
35 28 29 30 30 30 29 29 31 27 25 22 22 21 22 23 25 27 28 28 29 31 34 37 37 39 40 38 35 34 34 33 32 30 29 29 29 29 28 28 28 28 27 26
34 27 29 25 27 29 27 26 26 25 24 23 23 24 26 27 25 22 23 27 27 28 31 34 36 39 40 39 36 34 33 32 31 30 29 29 29 28 28 28 28 27 26 25
31 28 26 21 25 27 23 24 25 24 24 24 23 23 23 22 25 30 32 34 34 35 36 37 38 38 39 40 37 34 32 31 30 29 29 29 28 28 28 28 28 27 25 25
30 30 28 23 24 16 18 24 26 25 25 24 23 23 24 26 30 34 36 35 35 36 37 37 39 40 40 40 37 35 33 31 30 29 29 29 29 28 28 28 27 27 26 23
33 31 26 21 20 19 18 17 18 20 18 25 25 26 29 31 31 34 36 36 36 36 37 38 40 41 40 39 37 34 32 32 30 29 28 29 29 28 28 27 26 26 25 23
33 32 27 23 18 13 15 27 25 22 16 29 29 28 29 31 26 27 32 36 36 37 37 38 41 41 39 38 35 33 32 31 29 29 28 29 29 28 28 27 26 26 25 24
25 27 24 23 20 19 26 31 31 15 13 33 33 33 32 31 31 33 35 35 37 38 38 41 41 40 39 37 34 33 32 31 31 30 30 30 30 29 28 27 25 23 23 24
24 23 22 24 20 17 31 30 22 27 32 30 29 33 32 33 33 33 35 34 37 38 37 40 39 37 38 36 34 33 32 31 31 32 31 30 29 29 27 26 23 22 23 24
23 26 23 26 25 32 32 29 33 34 33 31 31 33 33 33 32 33 34 36 38 39 39 40 38 37 37 36 34 35 34 33 31 31 30 29 29 28 27 24 22 23 23 23
24 28 23 23 29 28 32 33 34 35 36 36 33 31 34 32 33 33 35 36 38 39 40 41 39 37 37 36 35 33 32 32 31 30 30 29 28 27 26 23 22 23 22 22
22 22 21 22 21 27 32 33 34 36 38 36 37 33 32 33 32 33 35 36 39 39 40 42 40 38 37 35 33 36 34 32 31 31 30 28 26 24 23 23 23 22 23 23
18 17 16 15 23 25 21 30 35 36 35 34 35 33 32 32 31 34 35 37 38 38 37 37 40 39 39 37 37 36 35 33 32 29 27 26 25 24 23 22 22 24 24 24

GFSCGP_sfc_30mbdewp_189.txt.gz
Dewpoint
41 39 37 37 36 34 31 32 31 31 32 34 32 33 34 35 35 33 33 34 39 42 44 49 52 53 52 53 52 51 48 46 45 43 40 37 36 35 36 37 38 37 38 39
38 36 37 37 37 36 34 33 32 33 35 35 33 33 34 34 34 34 34 34 36 41 43 47 50 51 51 52 52 50 47 45 44 43 40 38 35 34 34 36 37 37 37 38
37 36 36 37 37 36 35 34 33 32 34 35 35 33 31 30 34 35 35 35 34 38 40 45 48 50 51 51 51 50 48 44 44 43 41 38 36 34 33 34 35 36 36 37
40 40 38 36 36 36 34 36 35 34 34 31 33 27 29 29 30 32 33 35 33 34 39 42 46 48 49 50 51 50 48 44 44 43 39 37 34 31 30 32 33 34 36 36
38 38 37 36 35 37 35 36 36 35 34 34 32 31 27 30 29 31 32 33 34 32 31 40 45 47 48 49 50 49 47 45 44 42 40 38 35 33 32 32 33 33 35 35
39 39 38 37 37 36 36 35 35 35 34 31 32 31 27 27 29 31 34 36 37 38 37 39 45 46 46 47 49 48 46 45 44 42 40 39 37 33 32 32 32 32 32 34
38 38 39 38 37 38 36 35 32 30 30 28 31 31 30 31 34 35 36 36 37 38 39 39 44 45 45 46 48 47 45 43 42 41 39 39 37 35 34 32 30 30 30 31
33 30 38 39 36 35 37 35 31 25 24 25 30 28 29 33 36 35 35 36 37 38 40 40 44 44 44 46 47 46 44 42 40 40 39 39 37 36 34 30 29 30 29 30
33 32 38 39 38 35 35 35 35 29 31 29 28 31 32 32 33 34 33 34 37 38 39 40 42 43 44 45 46 45 43 42 39 39 39 38 37 35 32 30 30 30 29 29
36 31 32 35 39 38 34 35 32 33 27 26 29 28 28 30 32 33 34 33 33 38 38 40 41 42 43 44 45 45 44 41 39 38 38 37 36 34 32 30 29 30 29 27
38 35 33 34 35 34 36 34 34 33 33 26 24 27 31 31 33 35 35 33 35 36 39 39 40 41 42 43 43 43 42 39 38 38 38 37 37 36 34 32 30 30 28 28
39 37 33 33 36 36 34 34 34 31 31 32 28 27 33 33 35 37 38 38 35 35 39 39 40 40 41 42 42 42 41 40 39 38 38 38 39 38 36 34 32 30 28 28
34 31 26 30 34 36 34 36 36 36 34 31 29 30 35 35 37 39 37 41 36 33 36 40 40 40 41 41 41 41 41 40 40 40 40 39 37 36 35 33 31 28 27 27
36 31 28 23 26 31 30 32 34 34 31 32 32 30 34 37 37 39 39 40 34 31 31 35 40 40 40 40 40 40 40 40 40 40 38 37 36 35 34 32 31 29 28 27
34 29 31 31 30 31 31 30 32 31 32 30 31 31 33 35 36 38 38 35 30 29 29 32 36 40 40 40 40 40 40 40 40 39 38 37 36 35 33 32 30 30 29 28
30 23 27 25 32 31 29 30 33 33 32 32 31 29 28 36 37 33 29 28 25 34 35 36 37 38 41 41 40 39 39 39 39 39 38 36 34 33 32 32 31 29 28 28
26 27 23 20 29 30 25 30 31 32 32 31 28 28 30 28 28 27 26 30 34 34 34 35 35 37 38 40 40 39 38 38 38 37 37 36 34 33 32 31 30 29 28 27
26 25 26 21 24 17 24 26 32 29 29 30 28 26 26 25 26 31 35 34 33 33 34 35 37 37 38 40 41 40 39 38 37 37 36 34 33 32 32 31 30 29 28 28
31 27 23 21 19 22 25 22 26 26 24 27 28 26 25 30 32 34 34 34 34 35 36 37 38 39 39 41 41 41 39 37 36 36 35 33 33 32 32 30 30 29 28 28
30 30 26 24 20 17 23 29 27 24 12 25 26 26 29 30 26 28 35 34 35 35 37 38 39 39 40 40 40 40 39 37 36 35 34 33 33 32 31 30 29 29 29 27
25 26 21 21 19 23 30 33 31 15 17 32 30 30 31 29 29 31 34 35 35 36 38 40 39 39 39 39 39 38 37 36 36 35 34 32 32 31 30 30 29 29 28 27
21 19 22 23 20 17 31 31 24 31 32 30 32 33 32 32 33 33 34 34 36 37 38 40 39 38 38 38 37 37 36 36 34 34 32 32 31 30 30 29 28 27 26 25
19 24 21 22 22 30 30 30 33 33 33 33 31 32 33 33 32 32 33 35 36 37 38 40 38 38 37 37 36 36 35 34 34 33 32 31 31 30 29 27 26 26 26 25
18 23 22 22 26 24 31 32 33 34 34 35 36 33 34 33 34 32 33 35 36 37 39 40 38 37 36 36 36 36 35 34 32 31 30 30 29 28 28 29 29 27 25 24
12 15 12 9 13 25 31 32 31 33 36 37 37 34 33 33 32 32 34 34 36 37 38 40 38 37 35 35 34 33 33 33 31 31 30 29 29 28 29 29 28 27 27 25
17 14 11 3 12 26 23 25 25 30 33 35 36 33 33 32 31 32 34 36 36 36 36 39 38 37 35 35 34 33 33 32 31 29 29 28 27 27 27 26 26 28 28 29